Skip Page Navigation
NASA JPL Caltech
NASA Logo - Jet Propulsion Laboratory + View the NASA Portal
+ Center for Near-Earth Object Studies
JPL Home Earth Solar System Stars & Galaxies Technology
JPL Solar System Dynamics
BODIES ORBITS EPHEMERIDES TOOLS PHYSICAL DATA DISCOVERY FAQ SITE MAP
JPL Small-Body Database Browser
Search: [ help ]  
27414 (2000 EY139)
Classification: Main-belt Asteroid          SPK-ID: 2027414
Ephemeris | Orbit Diagram | Orbital Elements | Mission Design | Physical Parameters | Discovery Circumstances | Close-Approach Data ]

[ show orbit diagram ]
Orbital Elements at Epoch 2459000.5 (2020-May-31.0) TDB
Reference: JPL 25 (heliocentric ecliptic J2000)
 Element Value Uncertainty (1-sigma)   Units 
e .10192174887908 4.5174e-08  
a 2.810209411568601 1.4239e-08 au
q 2.523787953625079 1.3212e-07 au
i 10.1535203488949 4.2045e-06 deg
node 92.58313329772325 2.6749e-05 deg
peri 156.2776508622059 3.4595e-05 deg
M 52.72797610722077 2.144e-05 deg
tp 2458748.474169914902
(2019-Sep-21.97416992)
0.00010253 TDB
period 1720.705127125306
4.71
1.3078e-05
3.581e-08
d
yr
n .2092165556578735 1.5901e-09 deg/d
Q 3.096630869512123 1.569e-08 au
  Orbit Determination Parameters
   # obs. used (total)      1522  
   data-arc span      19424 days (53.18 yr)  
   first obs. used      1967-04-11  
   last obs. used      2020-06-15  
   planetary ephem.      DE431  
   SB-pert. ephem.      SB431-N16  
   condition code      0  
   norm. resid. RMS      .48689  
   source      ORB  
   producer      Otto Matic  
   solution date      2020-Jun-23 19:34:05  

Additional Information
 Earth MOID = 1.5128 au 
 Jupiter MOID = 1.96125 au 
 T_jup = 3.291 
[ show covariance matrix ]

Ephemeris | Orbit Diagram | Orbital Elements | Mission Design | Physical Parameters | Discovery Circumstances | Close-Approach Data ]

Physical Parameter Table
Parameter Symbol Value Units Sigma Reference Notes
absolute magnitude H 13.5   n/a MPO400278  
diameter diameter 5.002 km 0.139 urn:nasa:pds:neowise_diameters_albedos::2.0[mainbelt] (http://adsabs.harvard.edu/abs/2011ApJ...741...68M)  
geometric albedo albedo 0.536   0.098 urn:nasa:pds:neowise_diameters_albedos::2.0[mainbelt] (http://adsabs.harvard.edu/abs/2011ApJ...741...68M)  

27414 (2000 EY139)          Discovered 2000-Mar-12 by CSS at Catalina
Reference: 20010804/Numbers.arcLast Updated: 2004-04-19

[ show close-approach data ]
Alternate Designations
 2000 EY139 = 1967 GH1 = 1991 KM1 
Ephemeris | Orbit Diagram | Orbital Elements | Mission Design | Physical Parameters | Discovery Circumstances | Close-Approach Data ]
ABOUT SSD CREDITS/AWARDS PRIVACY/COPYRIGHT GLOSSARY LINKS
FirstGov 2020-Jul-04 06:57 UT
(server date/time)  
NASA Home Page
Site Manager:   Ryan S. Park
Webmaster  Alan B. Chamberlin